STARLINK-5756, 55598

Orbit data source: Space-Track

STARLINK-5756, 55598 is a payload satellite owned by SpaceX/Seattle (US) in LEO that was launched on Sun, 12 Feb 2023 UTC via an FALCON 9 launch vehicle from the Air Force Eastern Test Range (AFETR). Payload-class satellites include a variety of spacecraft equipped with specific instruments for various scientific and technological missions. These include communications satellites like Starlink; space stations such as the ISS; scientific satellites like the Hubble; Earth observation satellites from companies like Planet Labs, Umbra, and HawkEye 360; GPS; miniature CubeSats for education and research; and military/defense satellites.

Loading next visibility...
Identifier
55598, 2023-020AF
Orbit
LEO
Country
Flag of USUS
Related business
Manufacturer
SpaceX/Seattle
Mission
Operational Commercial Communications
Bus & Motor
STARLINK, Unknown motor
Mass
305 kg wet, ~290 kg dry
Launch date (UTC)
2023-02-12 (3 years ago)
Launch vehicle
FALCON 9
Launch site
Air Force Eastern Test Range (AFETR)
Object type
Payload
Rocket body
Debris
Shape & HBR
Box + 1 Pan, 10.1 m
Radar Cross Section
13.562 m², Large (>1 m²)

Expand to show TLE details & history
Last TLE update: 22 hours ago

TLE from 22 hours ago
0 STARLINK-5756
1 55598U 23020AF  26048.21419388 -.00002724  00000-0 -18667-3 0  9993
2 55598  43.0035 103.3854 0001750 279.8407  80.2238 15.02527744165982
Epoch: 2026-02-17T05:08Z
TLE epoch observation values (Epoch: 2026-02-17T05:08:26.351Z)
Latitude
0.00001°
Longitude
-120.92179°
Altitude
558.677 km
Speed
7.584 km/s
True Right ascension
06h 53m 32s
True Declination
0° 00' 00"
Sunlit
Object was in full shadow at epoch
Visualization orbit readout
Latitude
Unknown
Longitude
Unknown
Altitude
Unknown
Speed
Unknown
Apparent Right ascension
Unknown
Apparent Declination
Unknown
Sunlit
N/A
Visualization observer readout
Local Sidereal Time
05:30:55
Azimuth
Unknown
Elevation
Unknown
Doppler factor
Unknown
Orbital elements
Apogee altitude
562.243 km
Perigee altitude
559.814 km
Semi-major axis
6,939.165 km
Eccentricity
0.00018
Inclination
43.0035°
RAAN
103.3854°
Arg. of periapsis
279.8407°
True anomaly
80.24356°
Mean anomaly
80.2238°
Eccentric anomaly
80.23368°
Mean motion
3.75476 °/min
Orbital period
95.88 mins
BSTAR
-0.00018667
Loading maneuver chart data...
Computing Atmospheric mass density...
Loading historical data...
Loading historical data...
Loading historical data...
Loading historical data...
Loading historical data...
Loading historical data...
Loading historical data...

Documentation

Showing up to 5 results
|